Regional Weather Roundup
Issued by NWS

Home | Current Version | Previous Version | Text Only | Print | Product List | Glossary Off
Versions: 1 2 3 4 5 6 7 8 9 10 11 12 13 14 15 16 17 18 19 20 21 22 23 24 25 26 27

000
ASUS45 KBOU 270207
RWRCO

WEATHER ROUNDUP FOR COLORADO
NATIONAL WEATHER SERVICE DENVER/BOULDER CO
700 PM MST SUN FEB 26 2017

NOTE: "FAIR" INDICATES FEW OR NO CLOUDS BELOW 12000 FEET WITH NO
SIGNIFICANT WEATHER AND/OR OBSTRUCTIONS TO VISIBILITY.

COZ001>005-013-030-031-270300-
...NORTHWEST COLORADO...

CITY           SKY/WX    TMP DP  RH WIND       PRES   REMARKS
CRAIG          FAIR      20   6  55 CALM      29.80R
HAYDEN         FAIR      21   3  45 E6        29.79S WCI  14
MEEKER         FAIR      25   6  44 S6        29.80R WCI  18
MOUNT WERNER   NOT AVBL
STEAMBOAT SPGS FAIR      16   3  58 SE7       29.80R WCI   6
WALDEN         NOT AVBL
$$

COZ006>008-011-270300-
...WEST CENTRAL VALLEYS...

CITY           SKY/WX    TMP DP  RH WIND       PRES   REMARKS
GRAND JUNCTION FAIR      31   9  39 NE5       29.82S WCI  26
MONTROSE       FAIR      34  11  38 S6        29.87R WCI  29
EAGLE          PTCLDY    28   9  43 W6        29.83R WCI  22
RIFLE          FAIR      31  10  41 SE7       29.83R WCI  24
DELTA          FAIR      36   7  29 N7        29.85S
NUCLA          FAIR      32   9  37 S6        29.89R WCI  26
$$

COZ017>023-064>068-270300-
...SOUTHWEST COLORADO...

CITY           SKY/WX    TMP DP  RH WIND       PRES   REMARKS
DURANGO        FAIR      32   5  32 CALM      29.88R
CORTEZ         MOCLDY    28  14  55 CALM      29.88R
PAGOSA SPRINGS FAIR      30   4  33 SW3       29.88S
TELLURIDE      FAIR      22   6  50 SE9       29.86R WCI  12
WOLF CREEK PAS LGT SNOW   9   3  78 S29G43    29.82F WCI -14
$$

COZ009-010-012-014-032>034-037-058>063-270300-
...CENTRAL COLORADO...

CITY           SKY/WX    TMP DP  RH WIND       PRES   REMARKS
ASPEN          FAIR      19   4  51 SW7       29.80R WCI  10
BUENA VISTA    FAIR      24  -2  31 W15       29.80R WCI  12
COPPER MTN     FAIR       9  -6  52 MISG      29.72R
BERTHOUD PASS  FAIR       0  -9  65 W21G26    29.66S WCI -23
COTTONWOOD PAS FAIR      21  -4  33 W18G30    29.76S WCI   6
GUNNISON       FAIR      17   8  67 N6        29.86R WCI   9
KREMMLING      FAIR      30   5  34 SW8       29.79R WCI  23
LEADVILLE      FAIR       9  -9  44 SE5       29.75R WCI   1
MONARCH PASS     N/A      5   1  85 W32G39    29.84R WCI -20
SALIDA         FAIR      27   0  30 SW9       29.90R WCI  18
SUNLIGHT       NOT AVBL
WILKERSON PASS FAIR      10  -4  52 SW17G24   29.73F WCI  -7
$$

COZ069>075-270300-
...SAN LUIS VALLEY/SANGRE DE CRISTO MOUNTAINS...

CITY           SKY/WX    TMP DP  RH WIND       PRES   REMARKS
ALAMOSA        FAIR      26  12  55 SW8       29.84R WCI  18
LA VETA PASS   FAIR      19   3  49 SW23G37   29.78R WCI   2
SAGUACHE       FAIR      23   3  42 N6        29.85R WCI  16
$$

COZ035-036-038>040-270300-
...NORTHERN COLORADO FRONT RANGE...

CITY           SKY/WX    TMP DP  RH WIND       PRES   REMARKS
DENVER INTL AP FAIR      30   0  27 E7        29.75R WCI  23
DMNS CITY PARK   N/A     34  -3  20 E5G14     29.76S WCI  30
AURORA         PTCLDY    31  -2  25 E6        29.76R WCI  25
FRONT RANGE AP PTCLDY    32   1  27 NE6       29.76R WCI  26
ERIE MUNI ARPT FAIR      32   0  25 CALM      29.76S
BOULDER MUN AP FAIR      36   3  25 CALM      29.75S
CENTENNIAL     FAIR      34  -5  18 E3        29.75R
BROOMFIELD     PTCLDY    34   0  23 NE5       29.76R WCI  30
FORT COLLINS   FAIR      27  17  66 N9        29.78R WCI  18
LONGMONT       NOT AVBL
$$

COZ041-046-047-076>085-087-088-270300-
...PIKES PEAK/PALMER DIVIDE AND SOUTHERN FOOTHILLS...

CITY           SKY/WX    TMP DP  RH WIND       PRES   REMARKS
COLO. SPRINGS  FAIR      32 -10  16 W9        29.77R WCI  24
A. F. ACADEMY  FAIR      33  -6  18 NW10      29.75R WCI  25
SCHRIEVER AFB  FAIR      25 -11  20 W10       29.77R WCI  15
ELLICOTT       NOT AVBL
FALCON         FAIR      25 -10  21 W7        29.77R WCI  17
FORT CARSON    FAIR      34  -7  16 SW7       29.76R WCI  28
LIMON          FAIR      24   0  35 SE8       29.76S WCI  15
MONUMENT HILL  FAIR      25   5  42 SW9       29.77R WCI  15
TRINIDAD       FAIR      33   2  26 NW8       29.80R WCI  26
$$

COZ042>045-048>051-090-091-270300-
...NORTHEAST COLORADO...

CITY           SKY/WX    TMP DP  RH WIND       PRES   REMARKS
GREELEY ARPT   NOT AVBL
AKRON          FAIR      31   8  38 SE7       29.79R WCI  24
BURLINGTON     FAIR      30   6  36 SE14      29.83R WCI  19
WRAY           NOT AVBL
STERLING       FAIR      30  19  64 NE6       29.81R WCI  24
HOLYOKE        FAIR      28  19  69 E9        29.86R WCI  20
FORT MORGAN    FAIR      26  16  65 NE10      29.79S WCI  17
$$

COZ086-089-092>099-270300-
...SOUTHEAST COLORADO...

CITY           SKY/WX    TMP DP  RH WIND       PRES   REMARKS
PUEBLO         FAIR      38  -7  14 W6        29.77R
LA JUNTA       FAIR      39   7  26 SE15      29.80R
LAMAR          FAIR      36   7  29 SE13      29.82S
SPRINGFIELD      N/A     35   7  31 E12       29.83R WCI  27
$$




USA.gov is the U.S. government's official web portal to all federal, state and local government web resources and services.